Regional Weather Roundup
Issued by NWS

Home | Current Version | Previous Version | Graphics & Text | Print | Product List | Glossary On
Versions: 1 2 3 4 5 6 7 8 9 10 11 12 13 14 15 16 17 18 19 20 21 22 23 24 25 26 27 28 29 30 31 32 33 34 35 36 37 38 39 40 41 42 43 44 45 46 47 48 49 50
000
ASUS45 KSLC 200710
RWRUT

UTAH REGIONAL WEATHER ROUNDUP
NATIONAL WEATHER SERVICE SALT LAKE CITY UT
100 AM MDT WED AUG 20 2014

UTZ001>011-023>025-200800-

NORTHERN UTAH

CITY           SKY/WX    TMP DP  RH WIND       PRES   REMARKS
HILL AFB       CLOUDY    64  54  68 E10       29.92S
LOGAN          PTCLDY    60  52  74 CALM      29.93R
OGDEN          MOCLDY    64  53  67 S7        29.90R
PROVO AIRPORT  CLOUDY    64  55  72 SE3       29.93F
SALT LAKE CITY LGT RAIN  69  57  65 CALM      29.89R
VERNAL         CLOUDY    61  59  93 MISG      29.99S
WENDOVER       CLOUDY    72  45  37 NE8       29.90R
HEBER CITY     CLOUDY    59  54  82 CALM      29.98F
WEST JORDAN    CLOUDY    68  63  83 S8        29.92R

$$

UTZ012>022-026-027-200800-

SOUTHERN UTAH

CITY           SKY/WX    TMP DP  RH WIND       PRES   REMARKS
BRYCE CANYON   FOG       47  46  97 CALM      30.16S VSB 1/4
CEDAR CITY     LGT RAIN  59  51  75 W10       30.08R
MILFORD        MOCLDY    61  55  81 NE8       30.00S
MOAB/CYNLANDS  CLOUDY    65  61  87 E3        29.95S
PRICE          CLOUDY    61  57  87 E3        30.02S
ST GEORGE      CLOUDY    70  63  78 N7        29.93R
KANAB            N/A     59  59 100 N5        30.06S

$$

REGIONAL REPORTS     COLORADO/ARIZONA

CITY           SKY/WX    TMP DP  RH WIND       PRES   REMARKS
CRAIG, CO      CLOUDY    57  54  89 E6        30.04S
GRAND JUNCTION CLOUDY    62  60  93 NE7       29.98S
RIFLE          CLOUDY    61  58  90 CALM      30.02S
MONTROSE       MOCLDY    62  59  90 CALM      30.06R
CORTEZ         PTCLDY    59  58  96 CALM      30.08S
PAGE, AZ       CLEAR     68  61  78 CALM      29.98S
GRAND CANYON     N/A    N/A N/A N/A MISG        N/A
KINGMAN        CLEAR     67  56  67 SE17G28   29.93R
FLAGSTAFF      MOCLDY    52  49  89 CALM      30.19R

$$

REGIONAL REPORTS    NEVADA/IDAHO/WYOMING

CITY           SKY/WX    TMP DP  RH WIND       PRES   REMARKS
LAS VEGAS, NV  PTCLDY    80  54  40 S6        29.79R
ELY            CLOUDY    54  54 100 S3        30.08S
ELKO           MOCLDY    63  44  50 SW8       29.94S
POCATELLO, ID  PTCLDY    61  55  81 E8        29.92S
BURLEY         PTCLDY    62  51  67 NE7       29.87S
EVANSTON, WY   CLOUDY    53  50  89 S6        30.06S
ROCK SPRINGS   MOCLDY    53  49  86 S6        30.03S

$$



USA.gov is the U.S. government's official web portal to all federal, state and local government web resources and services.